#timestamp,LO_Frequency,Hit,StdDev 
1542268815.5,286046999.0,N
1542268835.3,286046998.7,N
1542268855.1,286047001.0,N
1542268875.9,286047000.4,N
1542268895.7,286047002.1,N
1542268915.6,286046999.8,N
1542268935.4,286047000.2,N
1542268955.2,286047002.3,N
1542268975.1,286047001.8,N
1542268976.0,286047001.8,N
1542268995.8,286047002.6,N
1542269015.6,286047000.1,N
1542269035.5,286047000.2,N
1542269055.3,286046999.9,N
1542269075.2,286047000.4,N
1542269095.9,286046999.9,N
1542269115.7,286047001.0,N
1542269135.6,286047000.3,N
1542269155.5,286047001.4,N
1542269175.3,286047001.5,N
1542269195.2,286047001.3,N
1542269215.0,286047001.9,N
1542269215.9,286047001.9,N
1542269235.7,286046999.8,N
1542269255.6,286047000.5,N
1542269275.4,286047000.9,N
1542269295.3,286046998.1,N
1542269315.1,286046998.3,N
1542269335.8,286047000.8,N
1542269355.7,286047000.9,N
1542269375.5,286046998.3,N
1542269395.4,286047000.6,N
1542269415.2,286047001.0,N
1542269435.0,286047001.1,N
1542269435.9,286047001.1,N
1542269455.8,286047001.0,N
1542269475.6,286047000.4,N
1542269495.5,286047000.5,N
1542269515.3,286047000.3,N
1542269535.1,286047000.3,N
1542269555.9,286047001.2,N
1542269575.7,286047000.7,N
1542269595.5,286046998.5,N
1542269615.4,286047000.0,N
1542269635.2,286047000.3,N
1542269655.1,286046999.7,N
1542269656.0,286046999.7,N
1542269675.8,286047002.1,N
1542269695.6,286047002.1,N
1542269715.5,286047002.4,N
1542269735.3,286047000.0,N
1542269755.2,286047000.1,N
1542269775.9,286047001.1,N
1542269795.7,286047000.7,N
1542269815.6,286047001.2,N
1542269835.4,286046998.8,N
1542269855.2,286047001.2,N
1542269875.1,286046998.1,N
1542269876.0,286046998.1,N
1542269895.8,286047000.6,N
1542269915.7,286047000.5,N
1542269935.5,286046998.2,N
1542269955.3,286047002.6,N
1542269975.2,286047000.7,N
1542269995.0,286047000.2,N
1542269995.9,286047000.2,N
1542270015.7,286047000.6,N
1542270035.6,286047000.5,N
1542270055.4,286047002.1,N
1542270075.3,286047001.0,N
1542270095.1,286047002.3,N
1542270115.8,286046999.8,N
1542270135.7,286047000.9,N
1542270155.5,286047000.5,N
1542270175.4,286047000.3,N
1542270195.2,286046998.1,N
1542270215.0,286047000.7,N
1542270215.9,286047000.7,N
1542270235.8,286047000.3,N
1542270255.6,286047000.3,N
1542270275.5,286047002.6,N
1542270295.3,286047002.3,N
1542270315.1,286047002.5,N
1542270335.9,286047001.5,N
1542270355.7,286047003.9,N
1542270375.6,286047004.4,Y
1542270395.4,286047002.0,P
1542270415.2,286047002.2,P
1542270435.1,286047002.3,P
1542270436.0,286047002.3,Y
1542270455.8,286047000.8,P
1542270475.7,286047000.6,N
1542270495.5,286046998.5,N
1542270515.3,286046998.5,N
1542270535.2,286046998.7,N
1542270555.0,286046998.2,N
1542270555.9,286046998.2,N
1542270575.8,286046998.8,N
1542270595.6,286047000.9,N
1542270615.4,286047000.6,N
1542270635.3,286046998.2,N
1542270655.1,286046998.4,N
1542270675.9,286046998.9,N
1542270695.7,286047000.4,N
1542270715.5,286046999.9,N
1542270735.4,286047000.8,N
1542270755.2,286046998.2,N
1542270775.0,286047000.3,N
1542270795.4,286047002.1,N
1542270815.3,286047000.3,N
1542270835.1,286047000.4,N
1542270855.8,286047000.5,N
1542270875.7,286046998.3,N
1542270895.5,286046999.2,N
1542270915.4,286046996.7,N
1542270935.2,286046996.7,N
1542270955.0,286046997.8,N
1542270955.9,286046997.8,N
1542270975.8,286046997.7,N
1542270995.6,286046997.0,N
1542271015.5,286046996.8,N
1542271035.3,286046997.3,N
1542271055.1,286046995.6,Y
1542271075.9,286046995.2,P
1542271095.7,286046997.0,N
1542271115.6,286046997.4,N
1542271135.4,286046997.7,N
1542271155.2,286046999.5,N
1542271175.1,286046996.5,N
1542271176.0,286046996.5,N
1542271195.8,286046999.6,N
1542271215.7,286046998.9,N
1542271235.5,286046997.5,N
1542271255.3,286046995.0,Y
1542271275.2,286046996.5,P
1542271295.9,286046998.9,N
1542271315.7,286046996.6,P
1542271335.6,286046998.7,N
1542271355.4,286046999.4,N
1542271375.3,286046999.6,N
1542271395.1,286046999.6,N
1542271396.0,286046999.6,N
1542271415.8,286046999.1,N
1542271435.7,286046999.2,N
1542271455.5,286046996.8,N
1542271475.3,286046997.6,N
1542271495.2,286046995.2,Y
1542271515.0,286046996.8,P
1542271535.6,286046999.5,N
1542271555.4,286046999.5,N
1542271575.2,286046997.0,N
1542271595.1,286046997.4,N
1542271615.6,286046997.2,N
1542271635.4,286046999.2,N
1542271655.3,286046998.7,N
1542271675.1,286046998.9,N
1542271695.8,286046999.1,N
1542271715.7,286046996.6,Y
1542271735.5,286046996.5,P
1542271755.4,286046996.8,P
1542271775.2,286046999.6,N
1542271795.0,286046998.9,N
1542271795.9,286046998.9,N
1542271815.8,286046998.3,N
1542271835.6,286046998.6,N
1542271855.5,286046998.7,N
1542271875.3,286046999.5,N
1542271895.1,286046999.0,N
1542271915.9,286047001.2,N
1542271935.7,286047000.7,N
1542271955.6,286046998.8,N
1542271975.4,286046999.4,N
1542271995.2,286046996.9,N
1542272015.1,286046999.6,N
1542272016.0,286046999.6,N
1542272035.8,286046997.9,N
1542272055.6,286046997.5,N
1542272075.5,286046996.8,N
1542272095.3,286046999.6,N
1542272115.1,286046999.5,N
1542272135.9,286046996.6,N
1542272155.7,286046996.5,N
1542272175.6,286046997.0,N
1542272195.4,286046996.9,N
1542272215.2,286046999.5,N
1542272235.1,286046998.9,N
1542272236.0,286046998.9,N
1542272255.8,286046998.4,N
1542272275.7,286046998.3,N
1542272295.5,286046998.7,N
1542272315.3,286046996.7,N
1542272335.2,286046996.5,N
1542272355.0,286046995.0,Y
1542272355.9,286046995.0,P
1542272375.7,286046997.8,N
1542272395.6,286046996.9,N
